Tracking 30685 objects as of 17-Jun-2025
HD Live streaming from Space Station
objects crossing your sky now

STARLINK-34038

Track STARLINK-34038 now!
10-day predictions
STARLINK-34038 is classified as:


NORAD ID: 63911
Int'l Code: 2025-095X
Perigee: 486.8 km
Apogee: 488.6 km
Inclination: 43.0 °
Period: 94.2 minutes
Semi major axis: 6858 km
RCS: Unknown
Launch date: May 10, 2025
Source: United States (US)
Launch site: AIR FORCE EASTERN TEST RANGE (AFETR)
Your satellite tracking list
Your tracking list is empty




NASA's NSSDC Master Catalog

Two Line Element Set (TLE):
1 63911U 25095X   25167.48092989  .00017142  00000-0  61511-3 0  9993
2 63911  42.9972 239.7108 0001287 267.2024  92.8681 15.28417465  7066
Source of the keplerian elements: AFSPC